Los Alamitos, CA

11:32 AM PST on February 26, 2017 (GMT -0800)
Los Alamitos Army Air Field

Weather History for KSLI - December, 2013

Change the Weather History Date:

Saturday, December 14, 2013

  Actual Average Record
Temperature  
Mean Temperature 58 °F -  
Max Temperature 75 °F 68 °F 80 °F (1996)
Min Temperature 41 °F 48 °F 37 °F (2008)
Degree Days  
Heating Degree Days 7    
Growing Degree Days 8 (Base 50)    
Moisture  
Dew Point 36 °F    
Average Humidity 69    
Maximum Humidity 100    
Minimum Humidity 11    
Precipitation  
Precipitation 0.00 in - - ()
Sea Level Pressure  
Sea Level Pressure 30.22 in    
Wind  
Wind Speed 3 mph (NW)    
Max Wind Speed 9 mph    
Max Gust Speed -    
Visibility 6 miles    
Events Fog    
Averages and records for this station are not official NWS values.
T = Trace of Precipitation, MM = Missing Value Source: NWS Daily Summary

Daily Weather History Graph

Daily Weather History Graph

Search for Another Location

Airport or City:

Trip Planner

Search our weather history database for the weather conditions in past years. The results will help you decide how hot, cold, wet, or windy it might be!

Date:

Astronomy

Dec. 14, 2013 Rise Set
Actual Time 6:49 AM PST 4:44 PM PST
Civil Twilight 6:21 AM PST 5:12 PM PST
Nautical Twilight 5:50 AM PST 5:43 PM PST
Astronomical Twilight 5:20 AM PST 6:14 PM PST
Moon 3:05 PM PST (12/14) 4:19 AM PST (12/14)
Length of Visible Light 10h 50m
Length of Day
9h 55m
Waxing Gibbous, 94% of the Moon is Illuminated
Dec 14
Waxing Gibbous
Dec 17
Full
Dec 25
Last Quarter
Jan 1
New
Jan 7
First Quarter

Hourly Weather History & Observations

Time (PST) Temp. Windchill Dew Point Humidity Pressure Visibility Wind Dir Wind Speed Gust Speed Precip Events Conditions
12:03 AM 44.6 °F - 44.6 °F 100% 30.19 in 0.5 mi WSW 2.3 mph - N/A Fog Fog
12:08 AM 42.8 °F - 42.8 °F 100% 30.19 in 0.2 mi WSW 2.3 mph - N/A Fog Fog
12:18 AM 42.8 °F - 42.8 °F 100% 30.19 in 0.5 mi Calm Calm - N/A Fog Fog
12:23 AM 41.0 °F 38.0 °F 41.0 °F 100% 30.19 in 1.5 mi WNW 4.6 mph - N/A   Clear
12:24 AM 41.0 °F 39.0 °F 41.0 °F 100% 30.19 in 2.0 mi WNW 3.5 mph - N/A   Clear
12:33 AM 42.8 °F 39.3 °F 42.8 °F 100% 30.18 in 2.0 mi WNW 5.8 mph - N/A   Clear
12:38 AM 42.8 °F - 42.8 °F 100% 30.19 in 4.0 mi Calm Calm - N/A   Clear
12:58 AM 43.2 °F 41.5 °F 43.2 °F 100% 30.19 in 5.0 mi WNW 3.5 mph - 0.00 in   Clear
1:18 AM 44.6 °F - 44.6 °F 100% 30.18 in 1.5 mi Calm Calm - N/A   Clear
1:23 AM 44.6 °F - 44.6 °F 100% 30.18 in 1.2 mi Calm Calm - N/A   Clear
1:28 AM 44.6 °F 43.1 °F 44.6 °F 100% 30.18 in 3.0 mi WNW 3.5 mph - N/A   Clear
1:38 AM 42.8 °F 41.1 °F 42.8 °F 100% 30.18 in 3.0 mi WNW 3.5 mph - N/A   Clear
1:43 AM 44.6 °F 43.1 °F 44.6 °F 100% 30.18 in 4.0 mi WNW 3.5 mph - N/A   Clear
1:58 AM 44.2 °F 41.8 °F 44.2 °F 100% 30.19 in 5.0 mi WNW 4.6 mph - N/A   Clear
2:58 AM 43.5 °F - 43.5 °F 100% 30.19 in 7.0 mi North 1.2 mph - N/A   Clear
3:58 AM 42.8 °F 41.1 °F 42.8 °F 100% 30.20 in 7.0 mi North 3.5 mph - N/A   Clear
4:58 AM 41.4 °F 39.4 °F 41.4 °F 100% 30.21 in 7.0 mi NNW 3.5 mph - N/A   Clear
5:58 AM 42.3 °F 40.5 °F 42.3 °F 100% 30.22 in 7.0 mi NE 3.5 mph - N/A   Clear
6:58 AM 41.0 °F - 41.0 °F 100% 30.24 in 5.0 mi NW 2.3 mph - N/A   Clear
7:58 AM 43.9 °F 42.3 °F 43.9 °F 100% 30.26 in 6.0 mi NNW 3.5 mph - N/A   Clear
8:58 AM 54.5 °F - 40.5 °F 59% 30.28 in 10.0 mi NNW 2.3 mph - N/A   Clear
9:58 AM 63.9 °F - 32.4 °F 31% 30.29 in 10.0 mi Variable 2.3 mph - N/A   Clear
10:58 AM 68.5 °F - 26.2 °F 20% 30.27 in 10.0 mi NW 5.8 mph - N/A   Clear
11:58 AM 73.2 °F - 16.5 °F 12% 30.24 in 10.0 mi WNW 5.8 mph - N/A   Clear
12:58 PM 75.4 °F - 16.9 °F 11% 30.21 in 10.0 mi WNW 6.9 mph - N/A   Clear
1:58 PM 75.4 °F - 22.1 °F 14% 30.21 in 10.0 mi SW 9.2 mph - N/A   Clear
2:58 PM 75.0 °F - 17.4 °F 11% 30.21 in 10.0 mi West 6.9 mph - N/A   Clear
3:58 PM 73.4 °F - 23.2 °F 15% 30.22 in 10.0 mi WNW 3.5 mph - N/A   Clear
4:58 PM 63.5 °F - 27.9 °F 26% 30.22 in 10.0 mi WNW 2.3 mph - N/A   Clear
5:58 PM 59.9 °F - 30.6 °F 33% 30.24 in 10.0 mi North 4.6 mph - N/A   Clear
6:58 PM 56.5 °F - 29.8 °F 36% 30.24 in 10.0 mi North 4.6 mph - N/A   Clear
7:58 PM 55.0 °F - 30.7 °F 40% 30.24 in 10.0 mi ENE 4.6 mph - N/A   Clear
8:58 PM 50.9 °F - 31.8 °F 48% 30.24 in 10.0 mi North 6.9 mph - N/A   Clear
9:58 PM 48.6 °F - 32.2 °F 53% 30.25 in 10.0 mi Calm Calm - N/A   Clear
10:58 PM 55.2 °F - 28.9 °F 37% 30.25 in 10.0 mi North 5.8 mph - N/A   Clear
11:58 PM 49.5 °F - 32.0 °F 51% 30.24 in 10.0 mi NNE 6.9 mph - N/A   Clear